Location: Newark
(46.1453°N, 5.8006°E)
Time: 08:58:42
(UTC+00:00)

X-37B - Visible Passes

Search period start: 20 September 2020 00:00
Search period end: 30 September 2020 00:00
Orbit: 386 x 387 km, 45.0° (Epoch: 18 September)

Date Brightness Start Highest point End Pass type
(mag) Time Alt. Az. Time Alt. Az. Time Alt. Az.
20 Sep 2.3 03:05:33 31° E 03:05:33 31° E 03:07:22 10° E visible
20 Sep 1.1 04:37:50 12° W 04:40:41 45° SSW 04:43:44 10° ESE visible
21 Sep 0.6 03:42:02 59° SSW 03:42:10 60° S 03:45:18 10° ESE visible
22 Sep 3.6 02:46:19 13° ESE 02:46:19 13° ESE 02:46:47 10° E visible
22 Sep 1.6 04:18:37 21° WSW 04:20:01 31° SSW 04:22:54 10° SE visible
23 Sep 2.4 03:23:00 25° SE 03:23:00 25° SE 03:24:37 10° ESE visible
23 Sep 2.8 04:56:02 10° WSW 04:57:40 13° SSW 04:59:17 10° S visible
24 Sep 2.3 03:59:50 20° SSW 03:59:50 20° SSW 04:01:47 10° SSE visible
